Location: Newark
(13.6797°N, 8.5297°E)
Time: 16:02:07
(UTC+00:00)

Hubble Space Telescope - Visible Passes

Search period start: 07 December 2019 00:00
Search period end: 17 December 2019 00:00
Orbit: 536 x 540 km, 28.5° (Epoch: 06 December)

Date Brightness Start Highest point End Pass type
(mag) Time Alt. Az. Time Alt. Az. Time Alt. Az.
07 Dec 3.7 04:47:23 10° S 04:49:36 14° SSE 04:51:49 10° ESE visible
08 Dec 3.4 04:35:59 10° SSW 04:38:59 19° SSE 04:42:00 10° ESE visible
09 Dec 2.8 04:24:52 10° SSW 04:28:22 26° SSE 04:31:53 10° E visible
10 Dec 2.2 04:14:24 13° SW 04:17:45 36° SSE 04:21:35 10° E visible
11 Dec 1.4 04:05:38 33° SSW 04:07:08 51° SSE 04:11:10 10° ENE visible
12 Dec 0.9 03:56:40 72° SE 03:56:40 72° SE 04:00:40 10° ENE visible
13 Dec 2.0 03:47:32 36° ENE 03:47:32 36° ENE 03:50:05 10° ENE visible
14 Dec 3.0 03:38:13 19° NE 03:38:13 19° NE 03:39:27 10° NE visible
14 Dec 2.5 05:14:05 10° WNW 05:16:53 17° NNW 05:19:41 10° NNE visible
15 Dec 3.7 03:28:44 10° NE 03:28:44 10° NE 03:28:45 10° NE visible
15 Dec 2.7 05:04:06 10° NW 05:06:26 15° NNW 05:08:50 10° NNE visible
16 Dec 2.8 04:54:29 11° NNW 04:55:59 13° N 04:57:58 10° NNE visible
